This is the latest recevied weather packets stored in our database for station/object K7SKM. If no packets are shown the sender has not sent any weather packets the latest 10 day(s).
| Time | Temp. | Humidity | Pressure | Rain* | Wind** | Luminosity | Snow |
|---|---|---|---|---|---|---|---|
| 1777815807 | 10.56° C | 94% | 1018.7 hPa | 0 mm | - | 23 W/m² | - |
| 1777815505 | 10.56° C | 94% | 1018.7 hPa | 0 mm | - | 17 W/m² | - |
| 1777815202 | 10.56° C | 94% | 1018.7 hPa | 0 mm | - | 23 W/m² | - |
| 1777814898 | 10.56° C | 94% | 1018.8 hPa | 0 mm | - | 13 W/m² | - |
| 1777814595 | 10.56° C | 94% | 1018.6 hPa | 0 mm | - | 9 W/m² | - |
| 1777814292 | 10.56° C | 94% | 1018.8 hPa | 0 mm | - | 7 W/m² | - |
| 1777813988 | 10.56° C | 94% | 1018.6 hPa | 0 mm | - | 5 W/m² | - |
| 1777813686 | 10.56° C | 94% | 1018.6 hPa | 0 mm | - | 3 W/m² | - |
| 1777813383 | 10.56° C | 94% | 1018.7 hPa | 0 mm | - | 1 W/m² | - |
| 1777813081 | 10° C | 93% | 1018.6 hPa | 0 mm | - | 0 W/m² | - |
| 1777812779 | 10° C | 91% | 1018.8 hPa | 0 mm | - | 0 W/m² | - |
| 1777812474 | 10° C | 91% | 1018.7 hPa | 0 mm | - | 0 W/m² | - |
| 1777812172 | 10.56° C | 91% | 1018.6 hPa | 0 mm | - | 0 W/m² | - |
| 1777811870 | 10.56° C | 91% | 1018.8 hPa | 0 mm | - | 0 W/m² | - |
| 1777811569 | 10.56° C | 90% | 1018.5 hPa | 0 mm | - | 0 W/m² | - |
| 1777811264 | 10.56° C | 90% | 1018.6 hPa | 0 mm | - | 0 W/m² | - |
| 1777810962 | 10.56° C | 90% | 1018.7 hPa | 0 mm | - | 0 W/m² | - |
| 1777810658 | 10.56° C | 90% | 1018.5 hPa | 0 mm | - | 0 W/m² | - |
| 1777810355 | 10.56° C | 89% | 1018.8 hPa | 0 mm | - | 0 W/m² | - |
| 1777810051 | 10.56° C | 89% | 1018.6 hPa | 0 mm | - | 0 W/m² | - |
| 1777809749 | 10.56° C | 88% | 1018.7 hPa | 0 mm | - | 0 W/m² | - |
| 1777809446 | 10.56° C | 88% | 1018.8 hPa | 0 mm | - | 0 W/m² | - |
| 1777809144 | 11.11° C | 88% | 1018.8 hPa | 0 mm | - | 0 W/m² | - |
| 1777808841 | 11.11° C | 88% | 1018.5 hPa | 0 mm | - | 0 W/m² | - |
| 1777808538 | 11.11° C | 87% | 1018.7 hPa | 0 mm | - | 0 W/m² | - |
* Rain latest hour (hover to see other rain measurements)
** Current wind speed in m/s (hover to see current wind gust speed)